| time (UTC) | temp F | wind direction | speed MPH | gust MPH | rain 1hr in | rain 24hr in | rain mn in | humidity % | barometer mb |
| 20260902024503 | 81 | 38 | 2.0 | 11.0 | 0.00 | 0.00 | 0.00 | 85 | 1016.8 |
| 20260902024003 | 80 | 356 | 0.0 | 2.0 | 0.00 | 0.00 | 0.00 | 86 | 1015.6 |
| 20260902023504 | 80 | 358 | 0.0 | 2.0 | 0.00 | 0.00 | 0.00 | 85 | 1015.5 |
| 20260902022503 | 80 | 359 | 0.0 | 2.0 | 0.00 | 0.00 | 0.00 | 85 | 1015.4 |
| 20260902021503 | 80 | 2 | 1.0 | 3.0 | 0.00 | 0.00 | 0.00 | 85 | 1015.3 |
| 20260902021005 | 80 | 2 | 1.0 | 2.0 | 0.00 | 0.00 | 0.00 | 85 | 1015.3 |
| 20260902020504 | 81 | 2 | 1.0 | 2.0 | 0.00 | 0.00 | 0.00 | 84 | 1015.4 |
| 20260902020004 | 81 | 2 | 1.0 | 3.0 | 0.00 | 0.00 | 0.00 | 84 | 1015.4 |
| 20260902015003 | 81 | 1 | 1.0 | 2.0 | 0.00 | 0.00 | 0.00 | 83 | 1015.3 |
| 20260902014503 | 81 | 3 | 1.0 | 2.0 | 0.00 | 0.00 | 0.00 | 83 | 1015.2 |
| 20260902014003 | 81 | 7 | 0.0 | 3.0 | 0.00 | 0.00 | 0.00 | 82 | 1015.3 |
| 20260902013503 | 81 | 6 | 1.0 | 3.0 | 0.00 | 0.00 | 0.00 | 82 | 1015.0 |
| 20260902012503 | 82 | 3 | 1.0 | 4.0 | 0.00 | 0.00 | 0.00 | 81 | 1014.7 |
| 20260902012003 | 82 | 2 | 1.0 | 4.0 | 0.00 | 0.00 | 0.00 | 81 | 1014.7 |
| 20260902011505 | 82 | 3 | 2.0 | 4.0 | 0.00 | 0.00 | 0.00 | 81 | 1014.8 |
| 20260902011003 | 82 | 3 | 1.0 | 4.0 | 0.00 | 0.00 | 0.00 | 81 | 1014.8 |
| 20260902010503 | 82 | 3 | 1.0 | 3.0 | 0.00 | 0.00 | 0.00 | 80 | 1014.7 |
| 20260902010004 | 82 | 3 | 1.0 | 3.0 | 0.00 | 0.00 | 0.00 | 80 | 1014.6 |
| 20260902005504 | 83 | 5 | 1.0 | 2.0 | 0.00 | 0.00 | 0.00 | 80 | 1014.7 |
| 20260902005003 | 83 | 8 | 1.0 | 2.0 | 0.00 | 0.00 | 0.00 | 79 | 1015.1 |
| 20260902004504 | 83 | 358 | 1.0 | 5.0 | 0.00 | 0.00 | 0.00 | 79 | 1015.1 |
| 20260902004003 | 83 | 1 | 1.0 | 5.0 | 0.00 | 0.00 | 0.00 | 78 | 1014.8 |
| 20260902003503 | 84 | 8 | 1.0 | 5.0 | 0.00 | 0.00 | 0.00 | 77 | 1014.5 |
| 20260902003005 | 84 | 6 | 2.0 | 5.0 | 0.00 | 0.00 | 0.00 | 77 | 1014.3 |
| 20260902002503 | 84 | 3 | 2.0 | 6.0 | 0.00 | 0.00 | 0.00 | 77 | 1014.1 |
| 20260902001503 | 84 | 1 | 2.0 | 5.0 | 0.00 | 0.00 | 0.00 | 75 | 1013.7 |
| 20260902001003 | 85 | 1 | 2.0 | 5.0 | 0.00 | 0.00 | 0.00 | 74 | 1014.1 |
| 20260901234503 | 86 | 1 | 2.0 | 6.0 | 0.00 | 0.00 | 0.00 | 75 | 1014.4 |
| 20260901234003 | 86 | 3 | 2.0 | 5.0 | 0.00 | 0.00 | 0.00 | 75 | 1014.5 |
| 20260901233503 | 86 | 5 | 1.0 | 4.0 | 0.00 | 0.00 | 0.00 | 75 | 1014.4 |
| 20260901233003 | 86 | 5 | 1.0 | 4.0 | 0.00 | 0.00 | 0.00 | 75 | 1014.5 |
| 20260901232504 | 87 | 6 | 1.0 | 3.0 | 0.00 | 0.00 | 0.00 | 74 | 1014.4 |
| 20260901232003 | 87 | 6 | 1.0 | 5.0 | 0.00 | 0.00 | 0.00 | 73 | 1014.6 |
| 20260901231503 | 87 | 4 | 1.0 | 5.0 | 0.00 | 0.00 | 0.00 | 72 | 1014.5 |
| 20260901231003 | 88 | 2 | 1.0 | 5.0 | 0.00 | 0.00 | 0.00 | 72 | 1014.5 |
| 20260901225503 | 88 | 1 | 3.0 | 8.0 | 0.00 | 0.00 | 0.00 | 70 | 1014.4 |
| 20260901224503 | 89 | 6 | 1.0 | 5.0 | 0.00 | 0.00 | 0.00 | 68 | 1014.5 |
| 20260901224003 | 89 | 4 | 1.0 | 5.0 | 0.00 | 0.00 | 0.00 | 69 | 1014.6 |
| 20260901223003 | 90 | 3 | 1.0 | 6.0 | 0.00 | 0.00 | 0.00 | 68 | 1014.7 |
| 20260901222503 | 90 | 2 | 2.0 | 7.0 | 0.00 | 0.00 | 0.00 | 66 | 1014.6 |
| 20260901222003 | 90 | 1 | 1.0 | 7.0 | 0.00 | 0.00 | 0.00 | 66 | 1014.7 |
| 20260901221502 | 90 | 2 | 1.0 | 3.0 | 0.00 | 0.00 | 0.00 | 67 | 1014.8 |
| 20260901221003 | 90 | 357 | 1.0 | 3.0 | 0.00 | 0.00 | 0.00 | 65 | 1014.7 |
| 20260901220503 | 90 | 352 | 1.0 | 4.0 | 0.00 | 0.00 | 0.00 | 63 | 1014.7 |
| 20260901220003 | 90 | 349 | 1.0 | 4.0 | 0.00 | 0.00 | 0.00 | 63 | 1014.8 |
| 20260901215503 | 90 | 340 | 1.0 | 5.0 | 0.00 | 0.00 | 0.00 | 63 | 1014.8 |
| 20260901215003 | 90 | 338 | 2.0 | 6.0 | 0.00 | 0.00 | 0.00 | 63 | 1014.8 |
| 20260901214503 | 90 | 347 | 1.0 | 6.0 | 0.00 | 0.00 | 0.00 | 62 | 1014.8 |
| 20260901214003 | 90 | 348 | 1.0 | 5.0 | 0.00 | 0.00 | 0.00 | 64 | 1014.9 |
| 20260901213503 | 90 | 351 | 1.0 | 5.0 | 0.00 | 0.00 | 0.00 | 62 | 1015.1 |
| 20260901212504 | 90 | 337 | 2.0 | 8.0 | 0.00 | 0.00 | 0.00 | 62 | 1015.1 |
| 20260901212003 | 90 | 339 | 2.0 | 8.0 | 0.00 | 0.00 | 0.00 | 62 | 1015.2 |
| 20260901211503 | 91 | 338 | 2.0 | 8.0 | 0.00 | 0.00 | 0.00 | 63 | 1015.0 |
| 20260901211003 | 91 | 332 | 2.0 | 8.0 | 0.00 | 0.00 | 0.00 | 65 | 1015.1 |
| 20260901210003 | 91 | 329 | 2.0 | 11.0 | 0.00 | 0.00 | 0.00 | 63 | 1015.0 |
| 20260901205503 | 91 | 319 | 2.0 | 9.0 | 0.00 | 0.00 | 0.00 | 62 | 1015.1 |
| 20260901205003 | 91 | 328 | 2.0 | 9.0 | 0.00 | 0.00 | 0.00 | 62 | 1015.0 |
| 20260901204503 | 90 | 341 | 2.0 | 9.0 | 0.00 | 0.00 | 0.00 | 63 | 1015.1 |
| 20260901204003 | 90 | 341 | 1.0 | 9.0 | 0.00 | 0.00 | 0.00 | 64 | 1015.2 |
| 20260901203003 | 90 | 333 | 2.0 | 6.0 | 0.00 | 0.00 | 0.00 | 65 | 1015.0 |
| 20260901202503 | 90 | 348 | 1.0 | 5.0 | 0.00 | 0.00 | 0.00 | 64 | 1015.2 |
| 20260901201503 | 89 | 1 | 1.0 | 5.0 | 0.00 | 0.00 | 0.00 | 64 | 1015.3 |
| 20260901201003 | 90 | 324 | 2.0 | 9.0 | 0.00 | 0.00 | 0.00 | 63 | 1015.3 |
| 20260901200503 | 90 | 320 | 2.0 | 9.0 | 0.00 | 0.00 | 0.00 | 63 | 1015.4 |
| 20260901200003 | 90 | 321 | 3.0 | 8.0 | 0.00 | 0.00 | 0.00 | 60 | 1015.6 |
| 20260901195503 | 90 | 312 | 4.0 | 12.0 | 0.00 | 0.00 | 0.00 | 59 | 1015.8 |
| 20260901195004 | 90 | 311 | 5.0 | 12.0 | 0.00 | 0.00 | 0.00 | 60 | 1015.8 |
| 20260901194503 | 89 | 317 | 3.0 | 11.0 | 0.00 | 0.00 | 0.00 | 60 | 1015.8 |
| 20260901193503 | 90 | 322 | 2.0 | 8.0 | 0.00 | 0.00 | 0.00 | 60 | 1015.8 |
| 20260901193004 | 90 | 325 | 2.0 | 10.0 | 0.00 | 0.00 | 0.00 | 62 | 1015.8 |
| 20260901192503 | 90 | 333 | 2.0 | 10.0 | 0.00 | 0.00 | 0.00 | 59 | 1015.8 |
| 20260901192003 | 90 | 325 | 2.0 | 9.0 | 0.00 | 0.00 | 0.00 | 65 | 1015.7 |
| 20260901191503 | 90 | 313 | 3.0 | 9.0 | 0.00 | 0.00 | 0.00 | 64 | 1015.7 |
| 20260901191003 | 90 | 312 | 3.0 | 9.0 | 0.00 | 0.00 | 0.00 | 63 | 1015.7 |
| 20260901190503 | 90 | 316 | 3.0 | 9.0 | 0.00 | 0.00 | 0.00 | 63 | 1015.7 |
| 20260901190003 | 90 | 318 | 3.0 | 11.0 | 0.00 | 0.00 | 0.00 | 61 | 1015.8 |
| 20260901185503 | 90 | 318 | 3.0 | 11.0 | 0.00 | 0.00 | 0.00 | 59 | 1015.6 |
| 20260901185003 | 90 | 329 | 2.0 | 8.0 | 0.00 | 0.00 | 0.00 | 58 | 1015.7 |
| 20260901184503 | 91 | 326 | 2.0 | 10.0 | 0.00 | 0.00 | 0.00 | 58 | 1015.8 |
| 20260901184003 | 91 | 320 | 3.0 | 10.0 | 0.00 | 0.00 | 0.00 | 58 | 1015.8 |
| 20260901183503 | 92 | 323 | 2.0 | 8.0 | 0.00 | 0.00 | 0.00 | 59 | 1015.8 |
| 20260901183003 | 92 | 335 | 2.0 | 5.0 | 0.00 | 0.00 | 0.00 | 57 | 1015.7 |
| 20260901182503 | 92 | 347 | 2.0 | 8.0 | 0.00 | 0.00 | 0.00 | 58 | 1015.7 |
| 20260901181502 | 92 | 312 | 5.0 | 17.0 | 0.00 | 0.00 | 0.00 | 54 | 1015.9 |
| 20260901181003 | 92 | 313 | 4.0 | 11.0 | 0.00 | 0.00 | 0.00 | 61 | 1015.9 |
| 20260901180503 | 92 | 321 | 4.0 | 10.0 | 0.00 | 0.00 | 0.00 | 60 | 1016.0 |
| 20260901180003 | 92 | 340 | 2.0 | 8.0 | 0.00 | 0.00 | 0.00 | 61 | 1015.9 |
| 20260901175503 | 92 | 330 | 2.0 | 8.0 | 0.00 | 0.00 | 0.00 | 63 | 1016.0 |
| 20260901175003 | 92 | 320 | 3.0 | 10.0 | 0.00 | 0.00 | 0.00 | 62 | 1016.0 |
| 20260901174503 | 92 | 320 | 4.0 | 11.0 | 0.00 | 0.00 | 0.00 | 60 | 1016.1 |
| 20260901174004 | 92 | 328 | 3.0 | 11.0 | 0.00 | 0.00 | 0.00 | 60 | 1016.1 |
| 20260901173503 | 92 | 330 | 2.0 | 11.0 | 0.00 | 0.00 | 0.00 | 61 | 1016.0 |
| 20260901173004 | 92 | 318 | 4.0 | 12.0 | 0.00 | 0.00 | 0.00 | 62 | 1016.1 |
| 20260901172504 | 92 | 314 | 5.0 | 13.0 | 0.00 | 0.00 | 0.00 | 61 | 1016.2 |
| 20260901172003 | 92 | 315 | 5.0 | 13.0 | 0.00 | 0.00 | 0.00 | 64 | 1016.2 |
| 20260901171002 | 92 | 322 | 2.0 | 13.0 | 0.00 | 0.00 | 0.00 | 61 | 1016.3 |
| 20260901170503 | 92 | 330 | 2.0 | 12.0 | 0.00 | 0.00 | 0.00 | 63 | 1016.3 |
| 20260901170003 | 92 | 329 | 3.0 | 14.0 | 0.00 | 0.00 | 0.00 | 65 | 1016.3 |
| 20260901165503 | 92 | 337 | 3.0 | 14.0 | 0.00 | 0.00 | 0.00 | 67 | 1016.4 |
| 20260901165004 | 92 | 351 | 2.0 | 8.0 | 0.00 | 0.00 | 0.00 | 63 | 1016.5 |
| 20260901164504 | 91 | 329 | 3.0 | 16.0 | 0.00 | 0.00 | 0.00 | 64 | 1016.6 |
| 20260901164003 | 91 | 320 | 3.0 | 16.0 | 0.00 | 0.00 | 0.00 | 63 | 1016.7 |
| 20260901163003 | 91 | 341 | 2.0 | 10.0 | 0.00 | 0.00 | 0.00 | 68 | 1016.9 |
| 20260901162004 | 91 | 317 | 3.0 | 10.0 | 0.00 | 0.00 | 0.00 | 67 | 1016.8 |
| 20260901161503 | 91 | 327 | 3.0 | 11.0 | 0.00 | 0.00 | 0.00 | 67 | 1016.9 |
| 20260901161003 | 90 | 342 | 2.0 | 11.0 | 0.00 | 0.00 | 0.00 | 67 | 1017.1 |
| 20260901160503 | 90 | 347 | 2.0 | 6.0 | 0.00 | 0.00 | 0.00 | 71 | 1017.1 |
| 20260901160003 | 89 | 338 | 3.0 | 10.0 | 0.00 | 0.00 | 0.00 | 70 | 1017.2 |
| 20260901155003 | 88 | 327 | 2.0 | 15.0 | 0.00 | 0.00 | 0.00 | 72 | 1017.3 |
| 20260901154503 | 88 | 346 | 2.0 | 7.0 | 0.00 | 0.00 | 0.00 | 71 | 1017.2 |
| 20260901154003 | 88 | 353 | 2.0 | 7.0 | 0.00 | 0.00 | 0.00 | 74 | 1017.1 |
| 20260901153503 | 87 | 1 | 1.0 | 7.0 | 0.00 | 0.00 | 0.00 | 77 | 1017.2 |
| 20260901153003 | 87 | 2 | 1.0 | 4.0 | 0.00 | 0.00 | 0.00 | 76 | 1017.2 |
| 20260901152003 | 87 | 355 | 2.0 | 4.0 | 0.00 | 0.00 | 0.00 | 73 | 1017.4 |
| 20260901151503 | 87 | 357 | 2.0 | 7.0 | 0.00 | 0.00 | 0.00 | 74 | 1017.4 |
| 20260901151003 | 87 | 348 | 2.0 | 7.0 | 0.00 | 0.00 | 0.00 | 74 | 1017.4 |
| 20260901150503 | 87 | 348 | 2.0 | 6.0 | 0.00 | 0.00 | 0.00 | 74 | 1017.4 |
| 20260901150003 | 87 | 358 | 2.0 | 4.0 | 0.00 | 0.00 | 0.00 | 73 | 1017.5 |
| 20260901145503 | 87 | 359 | 1.0 | 4.0 | 0.00 | 0.00 | 0.00 | 75 | 1017.5 |
| 20260901145003 | 86 | 358 | 1.0 | 4.0 | 0.00 | 0.00 | 0.00 | 74 | 1017.4 |
| 20260901144503 | 87 | 358 | 1.0 | 4.0 | 0.00 | 0.00 | 0.00 | 74 | 1017.4 |
| 20260901144003 | 87 | 353 | 1.0 | 4.0 | 0.00 | 0.00 | 0.00 | 75 | 1017.4 |
| 20260901143003 | 86 | 359 | 2.0 | 6.0 | 0.00 | 0.00 | 0.00 | 75 | 1017.4 |
| 20260901142503 | 86 | 354 | 1.0 | 6.0 | 0.00 | 0.00 | 0.00 | 75 | 1017.4 |
| 20260901141503 | 86 | 341 | 2.0 | 8.0 | 0.00 | 0.00 | 0.00 | 77 | 1017.4 |
| 20260901141003 | 85 | 355 | 1.0 | 6.0 | 0.00 | 0.00 | 0.00 | 77 | 1017.5 |
| 20260901140503 | 85 | 325 | 3.0 | 10.0 | 0.00 | 0.00 | 0.00 | 80 | 1017.6 |
| 20260901140003 | 84 | 319 | 3.0 | 10.0 | 0.00 | 0.00 | 0.00 | 79 | 1017.6 |
| 20260901135503 | 84 | 329 | 2.0 | 10.0 | 0.00 | 0.00 | 0.00 | 78 | 1017.7 |
| 20260901135003 | 83 | 318 | 3.0 | 10.0 | 0.00 | 0.00 | 0.00 | 80 | 1017.7 |
| 20260901134003 | 82 | 323 | 2.0 | 8.0 | 0.00 | 0.00 | 0.00 | 84 | 1017.9 |
| 20260901133503 | 81 | 322 | 2.0 | 8.0 | 0.00 | 0.00 | 0.00 | 88 | 1017.8 |
| 20260901133003 | 81 | 327 | 2.0 | 7.0 | 0.00 | 0.00 | 0.00 | 87 | 1017.8 |
| 20260901132503 | 80 | 343 | 1.0 | 5.0 | 0.00 | 0.00 | 0.00 | 89 | 1017.8 |
| 20260901132003 | 79 | 355 | 1.0 | 3.0 | 0.00 | 0.00 | 0.00 | 91 | 1017.8 |
| 20260901131503 | 79 | 351 | 1.0 | 6.0 | 0.00 | 0.00 | 0.00 | 92 | 1017.8 |
| 20260901131004 | 78 | 353 | 1.0 | 6.0 | 0.00 | 0.00 | 0.00 | 92 | 1017.8 |
| 20260901130503 | 78 | 351 | 1.0 | 4.0 | 0.00 | 0.00 | 0.00 | 93 | 1017.9 |
| 20260901130003 | 77 | 356 | 1.0 | 3.0 | 0.00 | 0.00 | 0.00 | 95 | 1017.9 |
| 20260901125505 | 77 | 358 | 1.0 | 3.0 | 0.00 | 0.00 | 0.00 | 95 | 1017.9 |
| 20260901125003 | 77 | 2 | 1.0 | 3.0 | 0.00 | 0.00 | 0.00 | 96 | 1018.0 |
| 20260901124003 | 76 | 1 | 1.0 | 5.0 | 0.00 | 0.00 | 0.00 | 96 | 1017.9 |
| 20260901123503 | 76 | 3 | 1.0 | 3.0 | 0.00 | 0.00 | 0.00 | 97 | 1017.9 |
| 20260901123003 | 76 | 8 | 1.0 | 3.0 | 0.00 | 0.00 | 0.00 | 97 | 1018.0 |
| 20260901122503 | 76 | 7 | 1.0 | 3.0 | 0.00 | 0.00 | 0.00 | 97 | 1018.0 |
| 20260901122003 | 76 | 4 | 1.0 | 3.0 | 0.00 | 0.00 | 0.00 | 97 | 1018.1 |
| 20260901121003 | 75 | 8 | 1.0 | 3.0 | 0.00 | 0.00 | 0.00 | 97 | 1018.1 |
| 20260901120503 | 75 | 53 | 1.0 | 3.0 | 0.00 | 0.00 | 0.00 | 97 | 1018.1 |
| 20260901120003 | 75 | 45 | 1.0 | 2.0 | 0.00 | 0.00 | 0.00 | 97 | 1018.2 |
| 20260901115503 | 75 | 8 | 1.0 | 5.0 | 0.00 | 0.00 | 0.00 | 97 | 1018.1 |
| 20260901115003 | 74 | 6 | 1.0 | 5.0 | 0.00 | 0.00 | 0.00 | 97 | 1018.1 |
| 20260901114003 | 74 | 15 | 0.0 | 2.0 | 0.00 | 0.00 | 0.00 | 97 | 1017.9 |
| 20260901113503 | 74 | 323 | 1.0 | 3.0 | 0.00 | 0.00 | 0.00 | 97 | 1018.0 |
| 20260901113003 | 74 | 319 | 1.0 | 3.0 | 0.00 | 0.00 | 0.00 | 97 | 1018.1 |
| 20260901112504 | 73 | 343 | 0.0 | 2.0 | 0.00 | 0.00 | 0.00 | 97 | 1018.1 |
| 20260901112003 | 73 | 41 | 0.0 | 2.0 | 0.00 | 0.00 | 0.00 | 96 | 1017.9 |
| 20260901111505 | 73 | 7 | 0.0 | 2.0 | 0.00 | 0.00 | 0.00 | 96 | 1017.9 |
| 20260901111004 | 73 | 52 | 0.0 | 2.0 | 0.00 | 0.00 | 0.00 | 96 | 1017.8 |
| 20260901110503 | 73 | 12 | 1.0 | 2.0 | 0.00 | 0.00 | 0.00 | 97 | 1017.7 |
| 20260901110003 | 73 | 7 | 1.0 | 2.0 | 0.00 | 0.00 | 0.00 | 97 | 1017.5 |
| 20260901105503 | 73 | 17 | 0.0 | 2.0 | 0.00 | 0.00 | 0.00 | 96 | 1017.4 |
| 20260901104503 | 73 | 5 | 1.0 | 3.0 | 0.00 | 0.00 | 0.00 | 96 | 1017.5 |
| 20260901104003 | 73 | 3 | 1.0 | 4.0 | 0.00 | 0.00 | 0.00 | 96 | 1017.4 |
| 20260901103503 | 73 | 2 | 2.0 | 4.0 | 0.00 | 0.00 | 0.00 | 97 | 1017.4 |
| 20260901103003 | 73 | 2 | 1.0 | 3.0 | 0.00 | 0.00 | 0.00 | 96 | 1017.4 |
| 20260901102503 | 73 | 6 | 1.0 | 2.0 | 0.00 | 0.00 | 0.00 | 96 | 1017.6 |
| 20260901102003 | 73 | 13 | 1.0 | 2.0 | 0.00 | 0.00 | 0.00 | 96 | 1017.5 |
| 20260901101503 | 73 | 16 | 1.0 | 4.0 | 0.00 | 0.00 | 0.00 | 96 | 1017.6 |
| 20260901101003 | 73 | 11 | 1.0 | 4.0 | 0.00 | 0.00 | 0.00 | 96 | 1017.6 |
| 20260901100503 | 72 | 10 | 1.0 | 2.0 | 0.00 | 0.00 | 0.00 | 96 | 1017.6 |
| 20260901100004 | 72 | 9 | 0.0 | 2.0 | 0.00 | 0.00 | 0.00 | 96 | 1017.6 |
| 20260901095503 | 72 | 14 | 0.0 | 2.0 | 0.00 | 0.00 | 0.00 | 96 | 1017.6 |
| 20260901095003 | 72 | 99 | 0.0 | 2.0 | 0.00 | 0.00 | 0.00 | 95 | 1017.5 |
| 20260901094003 | 72 | 20 | 0.0 | 2.0 | 0.00 | 0.00 | 0.00 | 95 | 1017.6 |
| 20260901093503 | 72 | 5 | 1.0 | 2.0 | 0.00 | 0.00 | 0.00 | 96 | 1017.4 |
| 20260901093003 | 72 | 5 | 1.0 | 2.0 | 0.00 | 0.00 | 0.00 | 96 | 1017.6 |
| 20260901092503 | 72 | 8 | 0.0 | 2.0 | 0.00 | 0.00 | 0.00 | 95 | 1017.6 |
| 20260901092003 | 72 | 1 | 0.0 | 1.0 | 0.00 | 0.00 | 0.00 | 95 | 1017.6 |
| 20260901091503 | 72 | 69 | 0.0 | 1.0 | 0.00 | 0.00 | 0.00 | 95 | 1017.5 |
| 20260901091003 | 72 | 64 | 0.0 | 1.0 | 0.00 | 0.00 | 0.00 | 95 | 1017.5 |
| 20260901090503 | 72 | 108 | 0.0 | 2.0 | 0.00 | 0.00 | 0.00 | 95 | 1017.6 |
| 20260901090005 | 72 | 42 | 0.0 | 2.0 | 0.00 | 0.00 | 0.00 | 95 | 1017.6 |
| 20260901085504 | 72 | 29 | 1.0 | 1.0 | 0.00 | 0.00 | 0.00 | 95 | 1017.5 |
| 20260901085003 | 72 | 43 | 1.0 | 2.0 | 0.00 | 0.00 | 0.00 | 95 | 1017.5 |
| 20260901084503 | 72 | 52 | 0.0 | 2.0 | 0.00 | 0.00 | 0.00 | 95 | 1017.4 |
| 20260901084003 | 72 | 49 | 0.0 | 2.0 | 0.00 | 0.00 | 0.00 | 95 | 1017.6 |
| 20260901083503 | 73 | 37 | 0.0 | 2.0 | 0.00 | 0.00 | 0.00 | 95 | 1017.6 |
| 20260901082503 | 73 | 116 | 0.0 | 2.0 | 0.00 | 0.00 | 0.00 | 95 | 1017.6 |
| 20260901082003 | 73 | 38 | 0.0 | 2.0 | 0.00 | 0.00 | 0.00 | 95 | 1017.5 |
| 20260901081503 | 73 | 17 | 0.0 | 2.0 | 0.00 | 0.00 | 0.00 | 95 | 1017.6 |
| 20260901080503 | 73 | 2 | 0.0 | 2.0 | 0.00 | 0.00 | 0.00 | 95 | 1017.5 |
| 20260901075503 | 73 | 1 | 0.0 | 2.0 | 0.00 | 0.00 | 0.00 | 95 | 1017.6 |
| 20260901075004 | 73 | 51 | 0.0 | 2.0 | 0.00 | 0.00 | 0.00 | 95 | 1017.7 |
| 20260901074503 | 73 | 58 | 0.0 | 2.0 | 0.00 | 0.00 | 0.00 | 95 | 1017.8 |
| 20260901074003 | 73 | 32 | 1.0 | 2.0 | 0.00 | 0.00 | 0.00 | 95 | 1017.6 |
| 20260901072003 | 73 | 10 | 1.0 | 2.0 | 0.00 | 0.00 | 0.00 | 95 | 1017.7 |
| 20260901071503 | 73 | 19 | 1.0 | 3.0 | 0.00 | 0.00 | 0.00 | 95 | 1017.7 |
| 20260901070503 | 73 | 4 | 1.0 | 3.0 | 0.00 | 0.00 | 0.00 | 95 | 1017.7 |
| 20260901070003 | 73 | 9 | 1.0 | 2.0 | 0.00 | 0.00 | 0.00 | 95 | 1017.8 |
| 20260901065504 | 73 | 8 | 1.0 | 3.0 | 0.00 | 0.00 | 0.00 | 95 | 1017.8 |
| 20260901065003 | 73 | 6 | 1.0 | 3.0 | 0.00 | 0.00 | 0.00 | 95 | 1017.8 |
| 20260901064503 | 73 | 9 | 1.0 | 2.0 | 0.00 | 0.00 | 0.00 | 95 | 1018.0 |
| 20260901064003 | 73 | 15 | 1.0 | 2.0 | 0.00 | 0.00 | 0.00 | 95 | 1017.9 |
| 20260901063506 | 73 | 13 | 1.0 | 2.0 | 0.00 | 0.00 | 0.00 | 94 | 1017.9 |
| 20260901063003 | 73 | 20 | 1.0 | 2.0 | 0.00 | 0.00 | 0.00 | 94 | 1017.9 |
| 20260901062503 | 73 | 75 | 0.0 | 2.0 | 0.00 | 0.00 | 0.00 | 94 | 1018.0 |
| 20260901062003 | 73 | 91 | 0.0 | 2.0 | 0.00 | 0.00 | 0.00 | 94 | 1018.1 |
| 20260901061503 | 73 | 22 | 1.0 | 3.0 | 0.00 | 0.00 | 0.00 | 94 | 1018.1 |
| 20260901061003 | 73 | 12 | 1.0 | 3.0 | 0.00 | 0.00 | 0.00 | 94 | 1018.0 |
| 20260901060503 | 73 | 2 | 1.0 | 3.0 | 0.00 | 0.00 | 0.00 | 95 | 1018.1 |
| 20260901060003 | 74 | 1 | 2.0 | 3.0 | 0.00 | 0.00 | 0.00 | 95 | 1018.1 |
| 20260901055503 | 73 | 2 | 1.0 | 3.0 | 0.00 | 0.00 | 0.00 | 94 | 1018.2 |
| 20260901054504 | 73 | 17 | 1.0 | 2.0 | 0.00 | 0.00 | 0.00 | 94 | 1018.3 |
| 20260901054003 | 73 | 36 | 1.0 | 2.0 | 0.00 | 0.00 | 0.00 | 94 | 1018.4 |
| 20260901053503 | 73 | 22 | 0.0 | 2.0 | 0.00 | 0.00 | 0.00 | 94 | 1018.5 |
| 20260901052503 | 74 | 5 | 1.0 | 2.0 | 0.00 | 0.00 | 0.00 | 94 | 1018.6 |
| 20260901052003 | 74 | 11 | 0.0 | 2.0 | 0.00 | 0.00 | 0.00 | 94 | 1018.6 |
| 20260901051503 | 74 | 8 | 1.0 | 2.0 | 0.00 | 0.00 | 0.00 | 94 | 1018.8 |
| 20260901050508 | 74 | 8 | 1.0 | 2.0 | 0.00 | 0.00 | 0.00 | 94 | 1018.8 |
| 20260901050003 | 74 | 7 | 0.0 | 2.0 | 0.00 | 0.00 | 0.00 | 94 | 1018.8 |
| 20260901044505 | 74 | 351 | 0.0 | 2.0 | 0.00 | 0.00 | 0.00 | 94 | 1019.0 |
| 20260901044003 | 74 | 7 | 0.0 | 2.0 | 0.00 | 0.00 | 0.00 | 94 | 1018.8 |
| 20260901043503 | 74 | 6 | 0.0 | 2.0 | 0.00 | 0.00 | 0.00 | 94 | 1018.9 |
| 20260901043003 | 74 | 25 | 0.0 | 2.0 | 0.00 | 0.00 | 0.00 | 94 | 1018.8 |
| 20260901042503 | 74 | 20 | 0.0 | 2.0 | 0.00 | 0.00 | 0.00 | 94 | 1018.7 |
| 20260901042003 | 74 | 2 | 0.0 | 2.0 | 0.00 | 0.00 | 0.00 | 94 | 1018.7 |
| 20260901041003 | 74 | 2 | 0.0 | 2.0 | 0.00 | 0.00 | 0.00 | 93 | 1018.5 |
| 20260901040503 | 74 | 6 | 0.0 | 2.0 | 0.00 | 0.00 | 0.00 | 93 | 1018.6 |
| 20260901035503 | 74 | 16 | 0.0 | 2.0 | 0.00 | 0.00 | 0.00 | 93 | 1018.7 |
| 20260901034504 | 74 | 4 | 1.0 | 3.0 | 0.00 | 0.00 | 0.00 | 93 | 1018.7 |
| 20260901034003 | 74 | 7 | 1.0 | 3.0 | 0.00 | 0.00 | 0.00 | 93 | 1018.6 |
| 20260901033503 | 74 | 14 | 1.0 | 3.0 | 0.00 | 0.00 | 0.00 | 93 | 1018.7 |
| 20260901033003 | 74 | 10 | 1.0 | 3.0 | 0.00 | 0.00 | 0.00 | 93 | 1018.5 |
| 20260901032503 | 74 | 37 | 1.0 | 3.0 | 0.00 | 0.00 | 0.00 | 93 | 1018.6 |
| 20260901032003 | 74 | 75 | 1.0 | 2.0 | 0.00 | 0.00 | 0.00 | 93 | 1018.6 |
| 20260901030504 | 74 | 4 | 1.0 | 4.0 | 0.00 | 0.00 | 0.00 | 92 | 1018.4 |
| 20260901025503 | 74 | 13 | 1.0 | 4.0 | 0.00 | 0.00 | 0.00 | 92 | 1018.5 |
| 20260901025004 | 74 | 14 | 1.0 | 4.0 | 0.00 | 0.00 | 0.00 | 92 | 1018.5 |